Wichita Jabara, KS

8:02 AM CDT on September 22, 2017 (GMT -0500)
Col Jabara

Weather History for KAAO - January, 2013

Change the Weather History Date:

Monday, January 7, 2013

  Actual Average (KIAB) Record (KIAB)
Temperature  
Mean Temperature 40 °F -  
Max Temperature 53 °F 42 °F 66 °F (2006)
Min Temperature 26 °F 23 °F 4 °F (2015)
Degree Days  
Heating Degree Days 26    
Moisture  
Dew Point 22 °F    
Average Humidity 51    
Maximum Humidity 71    
Minimum Humidity 32    
Precipitation  
Precipitation 0.00 in - - ()
Sea Level Pressure  
Sea Level Pressure 30.15 in    
Wind  
Wind Speed 14 mph (SSW)    
Max Wind Speed 20 mph    
Max Gust Speed 30 mph    
Visibility 10 miles    
Events      
Averages and records for this station are not official NWS values.
T = Trace of Precipitation, MM = Missing Value Source: NWS Daily Summary

Daily Weather History Graph

Daily Weather History Graph

Search for Another Location

Airport or City:

Trip Planner

Search our weather history database for the weather conditions in past years. The results will help you decide how hot, cold, wet, or windy it might be!

Date:

Astronomy

Jan. 07, 2013 Rise Set
Actual Time 7:44 AM CST 5:26 PM CST
Civil Twilight 7:15 AM CST 5:55 PM CST
Nautical Twilight 6:42 AM CST 6:28 PM CST
Astronomical Twilight 6:11 AM CST 6:59 PM CST
Moon 3:11 AM CST (1/7) 1:37 PM CST (1/7)
Length of Visible Light 10h 39m
Length of Day
9h 41m
Waning Crescent, 22% of the Moon is Illuminated
Jan 7
Waning Crescent
Jan 11
New
Jan 18
First Quarter
Jan 26
Full
Feb 3
Last Quarter

Hourly Weather History & Observations

Time (CST) Temp. Windchill Dew Point Humidity Pressure Visibility Wind Dir Wind Speed Gust Speed Precip Events Conditions
12:54 AM 33.1 °F 23.4 °F 21.0 °F 61% 30.26 in 10.0 mi South 13.8 mph - N/A   Clear
1:54 AM 34.0 °F 25.0 °F 19.9 °F 56% 30.25 in 10.0 mi South 12.7 mph - N/A   Clear
2:54 AM 34.0 °F 24.2 °F 19.9 °F 56% 30.25 in 10.0 mi South 15.0 mph - N/A   Clear
3:54 AM 30.9 °F 22.2 °F 19.0 °F 61% 30.24 in 10.0 mi South 10.4 mph - N/A   Clear
4:54 AM 32.0 °F 21.6 °F 19.9 °F 61% 30.22 in 10.0 mi South 15.0 mph - N/A   Clear
5:54 AM 26.1 °F 16.8 °F 18.0 °F 71% 30.22 in 10.0 mi South 9.2 mph - N/A   Clear
6:54 AM 30.9 °F 22.2 °F 19.0 °F 61% 30.22 in 10.0 mi South 10.4 mph - N/A   Clear
7:54 AM 30.9 °F 20.2 °F 19.0 °F 61% 30.23 in 10.0 mi SSW 15.0 mph - N/A   Clear
8:54 AM 34.0 °F 22.7 °F 19.9 °F 56% 30.23 in 10.0 mi SSW 19.6 mph 25.3 mph N/A   Clear
9:54 AM 37.0 °F 27.0 °F 21.0 °F 52% 30.22 in 10.0 mi SSW 18.4 mph - N/A   Clear
10:54 AM 39.9 °F 31.4 °F 21.9 °F 49% 30.22 in 10.0 mi South 16.1 mph 25.3 mph N/A   Clear
11:54 AM 46.0 °F 38.8 °F 23.0 °F 40% 30.18 in 10.0 mi SSW 18.4 mph 23.0 mph N/A   Clear
12:54 PM 48.9 °F - 24.1 °F 38% 30.13 in 10.0 mi SSW 17.3 mph 21.9 mph N/A   Clear
1:54 PM 50.0 °F - 24.1 °F 36% 30.09 in 10.0 mi SSW 18.4 mph 27.6 mph N/A   Clear
2:54 PM 53.1 °F - 24.1 °F 32% 30.08 in 10.0 mi SSW 18.4 mph 25.3 mph N/A   Clear
3:54 PM 50.0 °F - 24.1 °F 36% 30.08 in 10.0 mi SSW 17.3 mph - N/A   Clear
5:54 PM 45.0 °F 38.5 °F 25.0 °F 46% 30.07 in 10.0 mi South 13.8 mph - N/A   Clear
6:54 PM 45.0 °F 37.9 °F 25.0 °F 46% 30.07 in 10.0 mi South 16.1 mph - N/A   Clear
7:54 PM 44.1 °F 36.2 °F 25.0 °F 47% 30.06 in 10.0 mi South 18.4 mph 29.9 mph N/A   Clear
8:54 PM 42.1 °F 35.7 °F 24.1 °F 49% 30.06 in 10.0 mi South 11.5 mph - N/A   Clear
9:54 PM 42.1 °F 35.2 °F 24.1 °F 49% 30.05 in 10.0 mi SSW 12.7 mph - N/A   Clear
10:54 PM 39.0 °F 31.4 °F 23.0 °F 53% 30.05 in 10.0 mi SSW 12.7 mph - N/A   Clear
11:54 PM 36.0 °F 27.5 °F 23.0 °F 59% 30.04 in 10.0 mi South 12.7 mph - N/A   Clear